GEOSCAN 3 (RS92S3)

Last updated on Tue Aug 25 2026 00:03:14 GMT+0000 (Coordinated Universal Time)

1 64893U 25155T 26236.57408602 .00017593 00000+0 47880-3 0 9993 2 64893 97.4594 207.3833 0003523 316.7146 43.3821 15.37575864 91357
UTC large
Height (km)
Speed (km/s)
/
Latitude / Longitude
Inclination (degrees)
Orbital Period (minutes)
Azimuth
Elevation
Range (km)
Doppler Factor

Next 0 passes for location: London (51.5072 / 0.1276)

No passes found over London.
GEOSCAN 3 (RS92S3)